Regional Weather Roundup
Issued by NWS Austin/San Antonio, TX

Current Version | Previous Version | Text Only | Print | Product List | Glossary On
Versions: 1 2 3 4 5 6 7 8 9 10 11 12 13 14 15 16 17 18 19 20 21 22 23 24 25 26 27 28 29 30 31 32 33 34 35 36 37 38 39 40 41 42 43 44 45 46 47 48 49 50
000
ASUS44 KEWX 131510
RWREWX
SOUTH TEXAS REGIONAL WEATHER ROUNDUP
NATIONAL WEATHER SERVICE AUSTIN/SAN ANTONIO TX
1000 AM CDT SUN JUN 13 2021

NOTE: "FAIR" INDICATED FEW OR NO CLOUDS BELOW 12,000 FEET WITH NO
SIGNIFICANT WEATHER AND/OR OBSTRUCTIONS TO VISIBILITY.

* - THESE STATIONS ARE NOT NWS OR FAA STATIONS...AND ARE NOT SUBJECT
    TO NWS AND FAA QUALITY CONTROL.

TXZ171-172-183>190-131600-
TEXAS HILL COUNTRY AND EDWARDS PLATEAU

CITY           SKY/WX    TMP DP  RH WIND       PRES   REMARKS
JUNCTION       MOSUNNY   80  70  71 CALM      30.09R
*LLANO         SUNNY     82  72  69 W5        30.06R
BURNET         SUNNY     83  70  64 W6        30.09R
*HORSESHOE BAY SUNNY     82  71  68 W3        30.07R
*LAGO VISTA    SUNNY     84  72  66 W6        30.07R HX  90
*KERRVILLE     SUNNY     79  73  80 CALM      30.09R
*FREDERICKSBRG SUNNY     78  71  78 NW3       30.09S
*ROCKSPRINGS     N/A     81  70  69 MISG      30.15S
*BOERNE        PTSUNNY   81  72  74 CALM      30.07R
*CASTROVILLE   PTSUNNY   82  71  68 CALM      30.06R
HONDO          SUNNY     82  72  71 VRB3      30.06R
*UVALDE        SUNNY     81  75  82 SE5       30.06R
DEL RIO        SUNNY     86  72  62 S6        30.03R HX  92
*LAUGHLIN AFB  SUNNY     83  71  66 E5        30.03R
*SPOFFORD      SUNNY     84  72  65 S7        29.97R HX  90
*EAGLE PASS    SUNNY     84  70  61 SE9       30.01R
CARRIZO SPRGS  SUNNY    N/A N/A N/A SE8       30.00S
$$

TXZ173-191>194-202-209-217>225-228-131600-
CENTRAL AND SOUTH CENTRAL TEXAS

CITY           SKY/WX    TMP DP  RH WIND       PRES   REMARKS
GEORGETOWN     SUNNY     85  72  65 W7        30.05S HX  91
*TAYLOR        SUNNY     89  74  61 W6        30.03R HX  97
AUSTIN/BERGSTM MOSUNNY   83  73  72 VRB3      30.02S
AUSTIN/MABRY   SUNNY     86  72  62 NW3       30.04R HX  92
*PFLUGERVILLE  SUNNY     84  72  65 CALM      30.02S
SAN MARCOS     SUNNY     83  77  82 SW5       30.03S HX  92
NEW BRAUNFELS  CLOUDY    81  74  79 SW6       30.02R
*RANDOLPH AFB  PTSUNNY   80  74  83 SW5       30.02S
*SEGUIN        CLOUDY    78  74  86 W6        30.07R
SAN ANTONIO    PTSUNNY   81  73  76 VRB5      30.05R
STINSON FIELD  PTSUNNY   84  73  69 VRB5      30.02R HX  90
*KELLY FIELD   MOSUNNY   79  73  82 CALM      30.03R
*PLEASANTON    SUNNY     83  73  72 CALM      30.03S
*KENEDY        SUNNY     81  73  76 CALM      30.03S
*LA GRANGE     SUNNY     86  78  78 NW5       29.99S HX  98
*GIDDINGS      SUNNY     84  74  70 W5        30.02S HX  91
*GONZALES      SUNNY     83  76  79 W6        30.02S HX  91
$$

TXZ163>164-176>182-195>201-210>213-226-227-235-131600-
SOUTHEAST TEXAS

CITY           SKY/WX    TMP DP  RH WIND       PRES   REMARKS
COLLEGE STN    SUNNY     86  75  69 W6        30.00R HX  95
*BRYAN         SUNNY     86  75  69 W8        30.02R HX  95
*CALDWELL      SUNNY     86  74  67 W7        30.01F HX  94
*CROCKETT      SUNNY     86  77  74 W3        29.99S HX  97
*BRENHAM       SUNNY     87  75  68 W5        30.01S HX  96
HUNTSVILLE     SUNNY     88  80  77 W7        30.00S HX 104
CONROE         SUNNY     86  75  69 W7        29.99F HX  95
HOUSTON BUSH   MOSUNNY   88  73  61 VRB5      29.98F HX  95
HOUSTON HOBBY  PTSUNNY   88  75  65 NW8       29.98F HX  97
*HOUSTON SW AP PTSUNNY   86  78  78 W9        30.00S HX  98
PEARLAND       PTSUNNY   86  75  69 VRB5      30.00S HX  95
HOUSTON HOOKS  PTSUNNY   87  75  67 W5        29.98F HX  96
ELLINGTON FLD  MOSUNNY   88  75  66 W7G13     29.98  HX  97
SUGAR LAND     PTSUNNY   85  77  77 W6        29.99S HX  95
*HOUSTON EXEC  PTSUNNY   86  79  79 CALM      30.01F HX  99
*CLEVELAND MUN PTSUNNY   87  76  69 NW5       29.99F HX  97
*WHARTON       CLOUDY    80  75  84 NW5       30.01S
*COLUMBUS      FAIR      82  76  81 W5        30.02R HX  90
*EAGLE LAKE    SUNNY     83  76  78 NW5       30.00S HX  92
$$

TXZ214>216-236>238-131600-
THE UPPER TEXAS COAST

CITY           SKY/WX    TMP DP  RH WIND       PRES   REMARKS
*ORANGE        SUNNY     88  74  63 W6        29.99S HX  96
PORT ARTHUR    MOSUNNY   87  76  69 W8        29.97S HX  97
GALVESTON      MOSUNNY   88  76  67 W6        29.99S HX  99
ANGLETON       CLOUDY    85  76  74 NW6       29.98F HX  94
*BAY CITY      NOT AVBL
PALACIOS       CLOUDY    81  78  91 NW6       29.99S
$$

TXZ229>234-239>247-131600-
TEXAS COASTAL BEND AND RIO GRANDE PLAINS

CITY           SKY/WX    TMP DP  RH WIND       PRES   REMARKS
VICTORIA       CLOUDY    81  75  82 W7        30.00S
*BEEVILLE      CLOUDY    81  79  95 CALM      30.01S HX  91
ROCKPORT       SUNNY     83  77  82 N5        29.99S HX  92
*PORT ARANSAS  CLOUDY    83  75  76 N7        30.01S HX  91
*PORT LAVACA   CLOUDY    80  77  90 W3        30.00F
*INGLESIDE     MOSUNNY   85  77  78 N3        29.99S HX  95
CORPUS CHRISTI MOSUNNY   85  75  72 SE3       30.00R HX  93
CORPUS NAS     SUNNY     84  75  74 CALM      29.99R HX  92
*ROBSTOWN      MOSUNNY   85  78  80 CALM      30.00S HX  96
ALICE          MOSUNNY   82  76  81 VRB3      29.99S
KINGSVILLE NAS SUNNY     83  78  85 CALM      29.99S HX  93
COTULLA        NOT AVBL
LAREDO         SUNNY     85  74  69 VRB3      30.00R HX  92
$$

TXZ248>255-131600-
DEEP SOUTH TEXAS

CITY           SKY/WX    TMP DP  RH WIND       PRES   REMARKS
BROWNSVILLE    MOSUNNY   87  75  67 VRB3      29.97R HX  96
PORT ISABEL    MOSUNNY   87  74  64 E7        29.98R HX  95
HARLINGEN      MOSUNNY   86  78  77 CALM      29.98R HX  98
*HEBBRONVILLE  MOSUNNY   76  70  81 CALM      30.03R
MCALLEN        SUNNY     84  73  69 SE7       29.98R HX  90
*WESLACO       PTSUNNY   84  74  71 NE3       29.98R HX  91
FALFURRIAS     MOSUNNY   77  75  95 CALM      30.00S
EDINBURG       MOSUNNY   84  76  77 CALM      29.99S HX  93
*ZAPATA        SUNNY     87  73  62 SE3       30.00S HX  95
$$

TXZ213>215-236>238-242>244-246-247-251-254-255-131600-
CMAN STATIONS

STATION/POSITION TIME  TEMP    WIND        PRES    WAVE
                       AIR SEA DIR/SP/G            HT/PER
                 (UTC) (F)     (DEG/KT/KT) (MB)    (FT/S)
NORTH JETTY/GLS  1430   84 82  320/  7/  9 1014.7
EAGLE POINT      1430   85 87  310/  6/ 10 1014.9
MORGANS POINT    1430   83 84  320/  8/  9 1015.3
MISSION/ARANSAS  1400   79     340/  7     1017.0
PORT O`CONNOR    1430   80 88  290/  5/  6 1015.5
PORT ARANSAS     1500   81 84   90/  3/  4 1015.6
MALAQUITE BEACH  1430   92      70/  2/  3   N/A
BAFFIN BAY       1430   81 86  350/  3/  5 1015.2
PORT ISABEL      1430   84 82   50/  6/  7 1016.2
$$



USA.gov is the U.S. government's official web portal to all federal, state and local government web resources and services.